Weather reports worldwide

Advertisment
Huelva, Spain (8383): temperature & dewpoint: 19.03.2019 18:00:00 - 25.03.2019 18:00:00 (CET)Huelva, Spain (8383): wind speed: 19.03.2019 18:00:00 - 25.03.2019 18:00:00 (CET)Huelva, Spain (8383): wind direction: 19.03.2019 18:00:00 - 25.03.2019 18:00:00 (CET)Huelva, Spain (8383): reduced air pressure: 19.03.2019 18:00:00 - 25.03.2019 18:00:00 (CET)Huelva, Spain (8383): visibility: 19.03.2019 18:00:00 - 25.03.2019 18:00:00 (CET)Huelva, Spain (8383): precipitation: 19.03.2019 18:00:00 - 25.03.2019 18:00:00 (CET)
Date & Time tt [°C] td [°C] ff [km/h] ff [kn] dd ppp [hPa] vv [km] rr [mm]
25.03.2019 18:00:00 - - - - - - - -
25.03.2019 17:00:00 24,7 6,4 18 10 ENE 1012,8 20 0,0
25.03.2019 16:00:00 24,8 5,0 18 10 E 1013,5 20 -
25.03.2019 15:00:00 24,3 4,6 18 10 ENE 1014,5 20 0,0
25.03.2019 14:00:00 23,8 5,6 22 12 E 1015,5 20 0,0
25.03.2019 13:00:00 22,7 6,9 21 11 E 1016,4 16 -
25.03.2019 12:00:00 21,6 6,3 16 9 ENE 1017,3 20 0,0
25.03.2019 11:00:00 19,4 8,1 16 9 ENE 1018,4 20 0,0
25.03.2019 10:00:00 15,3 8,8 8 4 E 1019,0 14 -
25.03.2019 09:00:00 12,7 6,9 9 5 NE 1018,5 20 0,0
25.03.2019 08:00:00 10,4 6,2 8 4 NNE 1018,3 19 0,0
25.03.2019 07:00:00 10,3 6,1 8 4 NE 1018,1 18 -
25.03.2019 06:00:00 9,2 5,7 5 3 NE 1018,1 20 0,0
25.03.2019 05:00:00 9,6 5,8 5 3 NNE 1018,0 20 0,0
25.03.2019 04:00:00 10,8 6,2 5 3 NNE 1018,6 20 -
25.03.2019 03:00:00 11,4 6,1 8 4 NNE 1018,9 20 0,0
25.03.2019 02:00:00 12,3 6,3 5 3 NNE 1019,0 20 0,0
25.03.2019 01:00:00 12,9 7,6 5 3 NNE 1019,3 20 -
25.03.2019 00:00:00 13,6 9,4 4 2 NE 1019,9 20 0,0
24.03.2019 23:00:00 14,3 10,1 9 5 NNE 1020,1 20 0,0
24.03.2019 22:00:00 16,4 10,0 5 3 ENE 1020,2 20 -
24.03.2019 21:00:00 17,0 10,8 8 4 SSE 1019,6 20 0,0
24.03.2019 20:00:00 18,0 11,1 11 6 S 1018,7 20 0,0
24.03.2019 19:00:00 19,8 11,8 11 6 SSW 1018,2 20 -
24.03.2019 18:00:00 21,8 11,8 15 8 SSW 1017,5 20 0,0
24.03.2019 17:00:00 22,7 11,1 18 10 SSW 1017,4 20 0,0
24.03.2019 16:00:00 23,8 8,2 16 9 SE 1017,4 20 -
24.03.2019 15:00:00 22,9 8,6 15 8 ESE 1018,0 20 0,0
24.03.2019 14:00:00 21,7 7,9 13 7 E 1018,8 20 0,0
24.03.2019 13:00:00 20,8 7,8 15 8 E 1019,3 20 -
24.03.2019 12:00:00 19,6 7,7 18 10 ENE 1019,7 20 0,0
24.03.2019 11:00:00 17,6 7,6 18 10 E 1020,1 20 0,0
24.03.2019 10:00:00 15,0 8,0 11 6 ENE 1019,8 20 -
24.03.2019 09:00:00 12,7 8,0 9 5 NE 1019,4 20 0,0
24.03.2019 08:00:00 9,8 6,5 8 4 NE 1019,3 20 0,0
24.03.2019 07:00:00 9,6 6,1 5 3 NE 1019,0 20 -
24.03.2019 06:00:00 9,9 6,4 8 4 NE 1018,6 20 0,0
24.03.2019 05:00:00 10,3 6,6 4 2 NE 1018,6 19 0,0
24.03.2019 04:00:00 11,1 7,0 11 6 NE 1018,6 20 -
24.03.2019 03:00:00 10,9 6,2 9 5 NE 1019,0 20 0,0
24.03.2019 02:00:00 11,0 4,9 11 6 NE 1019,2 20 0,0
24.03.2019 01:00:00 11,7 4,7 5 3 NE 1019,6 20 -
24.03.2019 00:00:00 12,7 4,6 5 3 NE 1019,9 20 0,0
23.03.2019 23:00:00 13,4 5,5 5 3 NE 1020,1 20 0,0
23.03.2019 22:00:00 14,7 6,5 8 4 E 1019,7 20 -
23.03.2019 21:00:00 15,8 5,7 5 3 E 1019,2 20 0,0
23.03.2019 20:00:00 18,1 6,3 5 3 E 1018,6 20 0,0
23.03.2019 19:00:00 20,5 4,9 13 7 E 1018,6 20 -
23.03.2019 18:00:00 21,8 4,4 21 11 E 1018,0 20 0,0
23.03.2019 17:00:00 21,8 6,5 21 11 E 1017,8 20 0,0
23.03.2019 16:00:00 22,4 6,6 18 10 E 1018,1 20 -
23.03.2019 15:00:00 21,3 6,8 18 10 E 1018,7 20 0,0
23.03.2019 14:00:00 21,7 7,1 21 11 E 1019,5 20 0,0
23.03.2019 13:00:00 21,2 7,1 22 12 E 1020,3 20 -
23.03.2019 12:00:00 20,2 7,2 18 10 E 1020,9 20 0,0
23.03.2019 11:00:00 18,3 6,8 24 13 E 1021,4 20 0,0
23.03.2019 10:00:00 15,5 7,0 18 10 ENE 1021,8 20 -
23.03.2019 09:00:00 13,2 7,0 15 8 ENE 1022,0 20 0,0
23.03.2019 08:00:00 11,5 6,2 15 8 NE 1021,9 20 0,0
23.03.2019 07:00:00 10,7 6,4 13 7 NE 1021,5 20 -
23.03.2019 06:00:00 9,3 5,5 8 4 ENE 1021,9 20 0,0
23.03.2019 05:00:00 9,5 3,5 8 4 NE 1022,2 20 0,0
23.03.2019 04:00:00 9,7 3,4 8 4 NE 1022,3 20 -
23.03.2019 03:00:00 9,3 3,1 8 4 NE 1023,0 20 0,0
23.03.2019 02:00:00 9,5 1,6 9 5 NE 1023,2 20 0,0
23.03.2019 01:00:00 10,1 2,9 8 4 NE 1023,3 20 -
23.03.2019 00:00:00 11,9 4,1 8 4 NNE 1023,4 20 0,0
22.03.2019 23:00:00 13,4 2,6 5 3 ENE 1023,3 20 0,0
22.03.2019 22:00:00 14,4 2,9 2 1 NNE 1022,8 19 -
22.03.2019 21:00:00 16,7 3,0 5 3 E 1022,4 19 0,0
22.03.2019 20:00:00 16,8 7,4 8 4 SE 1021,8 20 0,0
22.03.2019 19:00:00 20,0 1,4 11 6 ENE 1021,5 20 -
22.03.2019 18:00:00 21,1 2,8 13 7 E 1021,3 20 0,0
22.03.2019 17:00:00 21,2 2,9 16 9 ENE 1021,7 20 0,0
22.03.2019 16:00:00 21,1 2,4 15 8 E 1022,2 20 -
22.03.2019 15:00:00 20,6 1,4 15 8 E 1022,7 20 0,0
22.03.2019 14:00:00 19,7 3,0 18 10 ENE 1023,5 20 0,0
22.03.2019 13:00:00 18,9 3,5 21 11 E 1024,2 18 -
22.03.2019 12:00:00 17,9 5,1 21 11 E 1024,6 20 0,0
22.03.2019 11:00:00 16,5 6,3 16 9 E 1024,9 20 0,0
22.03.2019 10:00:00 13,9 7,2 15 8 ENE 1025,1 20 -
22.03.2019 09:00:00 9,3 4,3 9 5 NE 1025,1 20 0,0
22.03.2019 08:00:00 6,4 3,2 5 3 N 1024,9 20 0,0
22.03.2019 07:00:00 6,1 2,4 8 4 NNE 1024,7 15 -
22.03.2019 06:00:00 5,7 2,7 8 4 NNE 1024,6 20 0,0
22.03.2019 05:00:00 6,2 3,0 5 3 NNE 1024,8 20 0,0
22.03.2019 04:00:00 6,2 3,4 5 3 NE 1024,9 20 -
22.03.2019 03:00:00 6,9 3,0 5 3 NNE 1025,0 20 0,0
22.03.2019 02:00:00 7,9 3,9 8 4 NE 1025,2 20 0,0
22.03.2019 01:00:00 10,3 4,4 5 3 NE 1025,2 20 -
22.03.2019 00:00:00 11,0 5,1 9 5 NE 1025,2 20 0,0
21.03.2019 23:00:00 12,0 6,3 5 3 NE 1024,9 20 0,0
21.03.2019 22:00:00 12,8 6,8 5 3 SSE 1024,4 20 -
21.03.2019 21:00:00 14,0 6,8 9 5 SSW 1023,7 20 0,0
21.03.2019 20:00:00 14,9 6,2 9 5 SSW 1023,5 19 0,0
21.03.2019 19:00:00 17,0 5,3 16 9 SW 1023,4 20 -
21.03.2019 18:00:00 19,8 -2,0 15 8 ENE 1023,0 20 0,0
21.03.2019 17:00:00 20,3 -2,1 15 8 E 1023,2 20 0,0
21.03.2019 16:00:00 20,2 -1,0 18 10 E 1023,5 20 -
21.03.2019 15:00:00 19,5 0,5 18 10 ENE 1023,9 20 0,0
21.03.2019 14:00:00 19,2 -0,3 22 12 E 1024,6 20 0,0
21.03.2019 13:00:00 18,1 2,4 22 12 ENE 1025,2 18 -
21.03.2019 12:00:00 17,4 4,3 18 10 E 1025,5 20 0,0
21.03.2019 11:00:00 16,1 4,8 22 12 E 1025,8 20 0,0
21.03.2019 10:00:00 13,8 7,6 15 8 E 1025,8 15 -
21.03.2019 09:00:00 9,6 6,1 5 3 NE 1025,9 20 0,0
21.03.2019 08:00:00 6,6 4,8 8 4 NNE 1025,6 19 0,0
21.03.2019 07:00:00 6,4 3,9 8 4 NE 1025,2 12 -
21.03.2019 06:00:00 6,9 4,4 8 4 NE 1024,9 20 0,0
21.03.2019 05:00:00 7,7 5,3 5 3 NNE 1024,6 20 0,0
21.03.2019 04:00:00 9,0 5,6 4 2 NE 1024,7 20 -
21.03.2019 03:00:00 8,9 5,6 4 2 NE 1025,3 20 0,0
21.03.2019 02:00:00 8,7 6,0 5 3 NE 1025,4 20 0,0
21.03.2019 01:00:00 10,6 5,8 8 4 NE 1025,1 20 -
21.03.2019 00:00:00 11,8 6,9 5 3 NNE 1025,1 20 0,0
20.03.2019 23:00:00 12,6 7,3 2 1 E 1025,2 20 0,0
20.03.2019 22:00:00 13,3 8,1 5 3 S 1024,9 20 -
20.03.2019 21:00:00 14,4 8,6 8 4 SSW 1024,4 20 0,0
20.03.2019 20:00:00 15,3 8,5 9 5 SSW 1024,1 20 0,0
20.03.2019 19:00:00 17,0 8,2 13 7 SSW 1023,7 20 -
20.03.2019 18:00:00 18,4 7,5 16 9 WSW 1023,0 20 0,0
20.03.2019 17:00:00 19,0 8,3 21 11 WSW 1022,7 20 0,0
20.03.2019 16:00:00 20,6 7,6 21 11 SW 1022,8 20 -
20.03.2019 15:00:00 20,8 6,7 18 10 SSW 1023,3 20 0,0
20.03.2019 14:00:00 20,7 -0,6 13 7 ESE 1024,1 20 0,0
20.03.2019 13:00:00 19,9 0,8 13 7 E 1024,8 30 -
20.03.2019 12:00:00 19,2 1,6 11 6 E 1025,3 20 0,0
20.03.2019 11:00:00 17,9 2,2 15 8 ENE 1025,4 20 0,0
20.03.2019 10:00:00 14,5 2,7 9 5 ENE 1025,3 22 -
20.03.2019 09:00:00 10,6 2,9 8 4 NE 1025,2 20 0,0
20.03.2019 08:00:00 6,8 0,9 4 2 ENE 1024,7 20 0,0
20.03.2019 07:00:00 7,8 0,7 5 3 NE 1024,1 30 -
20.03.2019 06:00:00 8,6 3,2 5 3 NNE 1024,1 20 0,0
20.03.2019 05:00:00 10,0 1,6 5 3 NE 1023,6 20 0,0
20.03.2019 04:00:00 8,5 1,4 2 1 SE 1023,5 20 -
20.03.2019 03:00:00 11,3 1,0 5 3 NNE 1023,7 20 0,0
20.03.2019 02:00:00 12,4 1,1 9 5 N 1023,9 20 0,0
20.03.2019 01:00:00 11,5 2,0 4 2 N 1024,0 20 -
20.03.2019 00:00:00 12,3 2,7 9 5 NE 1023,9 20 0,0
19.03.2019 23:00:00 13,0 3,4 8 4 NE 1023,4 20 0,0
19.03.2019 22:00:00 14,1 8,7 4 2 NE 1023,0 19 -
19.03.2019 21:00:00 15,5 8,9 5 3 NNE 1022,5 19 0,0
19.03.2019 20:00:00 16,9 8,8 5 3 W 1021,8 16 0,0
19.03.2019 19:00:00 19,3 9,2 11 6 WSW 1021,2 20 -
19.03.2019 18:00:00 21,3 9,8 15 8 WSW 1020,6 20 0,0

tt = temperature
td = dewpoint
ff = wind speed
dd = wind direction
ppp = reduced air pressure
vv = visibility
rr = precipitation

Next stations